Location: Baix
(44.7118°N, 4.7648°E)
Time: 16:14:34
(UTC+00:00)

Explorer 11/Cluster Stage 4 - All Passes

Search period start: 26 November 2020 00:00
Search period end: 06 December 2020 00:00
Orbit: 467 x 1258 km, 28.8° (Epoch: 25 November)

Date Brightness Start Highest point End Pass type
(mag) Time Alt. Az. Time Alt. Az. Time Alt. Az.
26 Nov - 23:37:46 10° SSW 23:39:22 11° S 23:40:52 10° SSE night (unlit)
27 Nov - 21:39:21 10° S 21:40:49 11° S 21:42:13 10° SSE night (unlit)
27 Nov - 23:26:12 10° SSW 23:28:26 13° S 23:30:28 10° SSE night (unlit)
28 Nov - 21:27:08 10° SSW 21:29:49 13° S 21:32:18 10° SE night (unlit)
28 Nov - 23:14:45 10° SW 23:17:27 14° S 23:19:55 10° SSE night (unlit)
29 Nov - 21:15:19 10° SSW 21:18:48 15° S 21:21:58 10° SE night (unlit)
29 Nov - 23:03:23 10° SW 23:06:28 15° S 23:09:16 10° SSE night (unlit)
30 Nov - 19:18:54 10° SSE 19:19:53 10° SSE 19:20:51 10° SSE visible
30 Nov - 21:03:38 10° SSW 21:07:45 17° S 21:11:26 10° SE night (unlit)
30 Nov - 22:52:03 10° SW 22:55:28 15° S 22:58:32 10° SSE night (unlit)
01 Dec - 19:05:56 10° S 19:08:46 12° SSE 19:11:28 10° SE visible
01 Dec - 20:52:04 10° SW 20:56:41 18° S 21:00:49 10° SE visible
01 Dec - 22:40:45 10° SW 22:44:27 16° SSW 22:47:46 10° SSE night (unlit)
02 Dec - 18:53:49 10° SSW 18:57:38 14° SSE 19:01:14 10° SE visible
02 Dec - 20:40:34 10° SW 20:45:36 20° S 20:50:07 10° SE visible
02 Dec - 22:29:28 10° SW 22:33:24 16° SSW 22:36:54 10° SSE night (unlit)
03 Dec - 18:41:58 10° SSW 18:46:29 16° SSE 18:50:44 10° SE visible
03 Dec - 20:29:07 10° SW 20:34:31 21° S 20:39:20 10° SE visible
03 Dec - 22:18:13 10° SW 22:22:19 17° SSW 22:25:59 10° SSE night (unlit)
04 Dec - 18:30:16 10° SSW 18:35:18 18° SSE 18:40:05 10° SE visible
04 Dec - 20:17:43 10° SW 20:23:22 22° S 20:28:29 10° SE visible
04 Dec - 22:07:00 10° SW 22:11:13 17° SSW 22:15:00 10° SSE night (unlit)
05 Dec - 18:18:40 10° SSW 18:24:07 20° SSE 18:29:19 10° SE visible
05 Dec - 20:06:21 10° SW 20:12:14 23° S 20:17:34 10° SE visible
05 Dec - 21:55:50 10° SW 22:00:05 16° SSW 22:03:57 10° SSE night (unlit)
